Track LANDSAT 4 now! 10-day predictions LANDSAT 4 is classified as:
1 13367U 82072A 19051.66753008 +.00000441 +00000-0 +26616-4 0 9994 2 13367 098.2345 278.0626 0011755 275.0647 119.5274 15.16636500403306